Wind_Speed
22 22 23 24 24 24 25 25 25 25 24 24 23 22 21 21 21 21 22 22 23 23 23 24 24 23 23 23 23 22 22 22 21 22 22 22 23 22 21 21 21 21 22 25 27 29 28 27 25 23 19 16 13 10 8 6 5 4 3 3 5 6 9 9 6 8 12 16 18 18 18 15 13 12 11 11 9 7 6 5 4 4 5 5 7 8 10 12
21 22 22 23 24 24 25 25 26 26 26 25 25 24 23 22 22 22 22 22 23 24 24 24 24 24 24 24 23 23 23 22 22 23 22 23 24 22 21 21 21 21 21 21 22 26 27 28 27 25 22 19 15 13 10 8 7 6 4 2 4 5 6 6 4 8 13 15 16 15 14 11 11 11 9 8 8 9 7 4 3 5 5 5 6 9 9 10
21 22 22 23 23 24 25 25 25 26 27 27 26 26 25 24 23 23 22 22 23 24 24 24 25 25 25 25 24 24 24 23 23 22 23 24 25 23 22 22 22 21 21 20 20 21 24 26 27 26 24 21 18 15 13 11 9 7 5 3 3 4 4 4 3 5 12 14 14 13 11 9 9 10 7 5 7 8 6 5 5 5 5 4 6 8 9 9
20 21 22 23 23 23 24 25 25 26 26 27 27 27 26 26 25 24 24 23 23 23 24 25 25 25 26 26 26 25 25 24 22 22 23 25 24 23 23 22 22 21 21 21 20 19 19 22 24 25 24 22 21 18 15 13 11 9 6 5 3 1 2 3 2 5 12 13 12 12 11 10 11 10 7 8 9 7 4 5 5 5 5 5 6 7 9 10
19 20 21 22 23 24 24 25 26 26 27 27 27 27 27 27 27 27 26 25 24 24 24 25 25 26 26 26 26 26 26 24 22 23 24 24 24 23 23 22 22 21 21 21 20 19 17 18 20 21 21 21 20 19 18 16 13 11 8 8 6 3 1 2 2 8 12 12 11 11 12 12 11 9 7 9 9 6 5 5 5 6 5 6 7 7 7 9
19 20 20 21 22 23 24 25 25 26 27 27 27 27 28 28 28 28 28 26 25 25 24 25 26 26 26 27 27 27 27 24 23 24 24 24 24 24 23 22 22 21 21 22 21 20 18 16 16 17 18 19 20 20 19 18 16 13 11 11 9 6 4 1 2 8 13 12 11 11 12 13 11 9 8 9 8 6 6 6 5 5 5 5 7 8 8 8
20 20 20 21 22 23 24 25 25 26 27 27 27 28 28 28 29 29 29 28 27 27 25 25 26 26 27 27 27 27 27 25 24 26 25 24 25 23 23 22 22 22 22 22 22 21 20 17 15 14 15 17 19 20 19 18 17 15 13 11 10 8 6 4 4 8 13 13 12 11 12 13 12 10 9 9 8 7 8 7 6 5 5 6 7 8 9 8
20 20 20 21 22 22 23 24 25 25 26 27 28 28 29 29 29 29 29 29 29 28 27 26 26 27 27 28 28 27 28 25 24 27 26 25 25 24 24 23 22 23 23 22 22 22 21 19 16 14 15 16 19 21 19 18 17 16 15 12 10 8 7 7 6 8 13 14 12 11 12 13 12 11 10 10 8 8 9 8 7 6 7 7 7 8 9 8
21 21 20 20 21 22 23 24 24 25 25 26 27 28 29 30 30 30 30 30 30 30 29 28 27 27 27 28 29 28 27 24 24 29 28 26 26 25 25 24 24 24 23 22 22 22 21 20 18 16 16 17 20 21 19 18 17 16 15 13 11 9 9 10 8 8 12 14 13 11 11 12 12 12 12 12 10 9 9 9 8 8 8 8 7 8 9 8
22 21 21 21 21 21 21 22 23 24 25 26 26 28 29 30 31 31 31 31 30 31 30 30 29 28 27 28 29 29 27 23 25 31 30 26 26 27 26 25 25 24 23 22 22 22 22 21 21 19 18 16 19 21 20 19 18 16 15 13 12 11 11 11 10 8 10 13 13 11 11 12 12 13 13 12 10 9 10 11 10 9 10 9 8 9 9 9
22 22 22 22 21 21 21 22 22 23 24 25 25 26 28 29 30 31 32 32 32 31 31 31 30 30 28 28 29 28 26 23 26 31 32 28 27 27 27 26 26 25 23 22 22 23 23 24 24 22 20 18 19 19 19 20 17 16 14 13 12 11 10 10 11 8 7 10 13 12 11 11 14 15 15 13 11 10 11 11 11 10 10 10 9 9 9 8
23 23 23 23 22 22 22 22 22 23 23 24 25 26 26 28 29 31 32 32 33 33 32 32 32 31 29 29 30 28 26 26 28 33 31 29 28 27 27 27 27 26 24 23 23 24 25 25 24 23 20 19 21 19 19 19 18 17 15 15 13 10 10 11 11 8 5 8 12 13 12 12 15 17 16 14 12 12 11 11 12 10 11 11 10 9 9 9
23 23 23 23 23 23 22 22 22 23 23 24 25 25 26 27 28 29 31 32 33 33 34 33 33 32 31 30 30 28 27 27 30 33 31 29 30 29 28 28 28 28 25 24 24 24 25 24 23 23 19 16 18 19 20 19 18 18 16 17 16 11 12 11 10 9 5 8 12 13 13 13 16 18 18 16 14 13 12 11 12 12 12 11 10 10 10 10
22 23 23 23 23 23 23 23 22 23 23 24 24 25 26 26 27 28 30 31 32 33 34 34 34 33 33 32 30 29 28 28 30 33 31 31 31 31 31 29 29 29 27 25 24 24 24 23 22 20 15 14 14 15 18 18 17 18 17 18 17 14 13 9 8 10 6 6 10 12 13 15 18 19 18 17 15 13 12 12 13 13 12 12 11 10 11 11
22 22 23 23 23 23 23 23 23 23 24 24 24 25 25 26 26 27 29 30 32 32 33 34 35 34 34 33 32 30 29 30 32 34 32 32 31 31 31 30 30 30 28 27 25 24 22 21 21 18 15 16 14 13 17 17 18 19 17 17 17 16 14 10 9 10 7 6 8 9 11 14 18 19 19 19 16 13 12 12 12 13 13 12 12 11 11 10
21 22 22 22 22 22 23 23 24 23 24 24 24 24 25 26 26 27 28 29 31 32 33 34 34 34 34 34 32 30 29 30 33 34 33 32 32 31 31 31 31 31 30 28 25 23 21 20 19 17 19 21 17 15 17 19 19 20 17 16 17 16 14 13 11 10 9 9 9 8 9 10 13 18 20 20 17 14 13 12 13 14 14 13 12 11 10 10
22 21 21 22 22 22 22 23 24 24 24 24 24 24 24 25 26 27 28 29 30 32 33 33 33 33 34 34 32 30 30 31 33 34 34 33 32 32 31 32 32 31 30 28 25 24 24 23 22 20 23 22 19 18 19 20 21 20 18 16 17 16 13 14 13 9 9 11 12 10 8 8 10 16 20 21 18 16 15 15 15 15 15 15 13 12 11 11
22 21 21 21 22 22 22 22 22 23 24 24 24 23 24 24 26 27 28 29 30 31 32 33 33 33 34 34 34 33 33 34 34 35 35 34 33 32 31 32 31 31 30 28 28 28 27 27 27 26 27 23 20 19 20 21 20 17 16 15 16 14 13 15 14 11 10 11 14 12 9 9 10 14 20 21 19 17 17 17 17 16 16 15 14 13 12 12
22 21 20 20 21 21 22 21 22 22 24 24 24 24 24 24 26 26 27 28 30 31 32 32 32 33 34 35 36 35 34 35 34 36 37 35 35 33 32 31 31 31 30 30 30 30 29 28 28 28 28 25 22 20 20 22 19 12 10 13 16 14 12 15 15 14 13 12 13 13 12 11 10 12 18 22 21 19 18 18 18 17 16 17 15 13 13 13
21 20 20 20 20 21 21 21 22 22 23 23 24 24 24 25 25 26 27 29 30 31 31 30 30 32 34 35 37 36 36 36 35 36 38 37 36 34 32 32 31 31 31 31 31 31 30 29 28 26 25 25 23 21 20 22 22 15 7 11 18 17 12 14 16 16 16 13 11 13 14 12 10 11 17 25 26 23 21 20 19 17 16 18 16 14 14 14
21 20 19 20 20 20 21 21 22 22 23 23 24 24 24 24 25 26 27 28 30 31 31 31 31 33 35 37 38 38 38 37 35 36 38 38 37 34 34 33 32 31 30 30 31 32 32 30 28 25 24 26 25 23 20 20 23 22 15 10 17 18 14 14 16 18 18 14 11 13 16 12 10 13 16 23 27 25 23 22 20 18 16 17 17 16 15 14
20 19 19 19 19 20 20 21 21 22 23 23 23 24 24 24 25 25 26 27 29 31 30 31 32 34 36 38 38 39 38 37 37 37 37 37 37 35 34 34 32 30 30 31 32 33 33 31 29 26 25 28 28 26 23 21 23 25 21 13 15 18 17 14 15 18 16 13 12 13 14 11 11 14 16 22 27 27 25 23 20 19 17 17 17 17 16 15
20 19 19 20 20 20 20 21 22 22 22 22 22 21 22 22 23 23 25 26 27 28 29 29 31 33 34 35 38 40 38 36 37 37 36 36 37 37 36 35 33 31 31 33 33 34 33 30 28 27 26 28 31 29 27 25 24 24 22 12 14 18 17 13 14 18 16 13 14 12 11 10 11 12 13 20 29 29 26 25 22 21 21 19 18 19 17 16
20 19 19 20 20 20 21 22 21 21 20 19 19 19 19 19 20 21 22 23 25 25 26 28 30 33 33 35 39 39 36 35 36 36 36 36 38 39 37 36 34 32 32 33 33 34 31 28 28 28 27 28 32 32 30 29 25 25 22 12 12 17 16 14 15 15 13 13 15 13 9 9 10 10 9 15 26 30 27 25 25 22 21 20 18 18 19 18
20 19 19 19 20 21 21 21 20 19 19 17 16 16 16 16 17 19 18 20 22 22 23 25 27 30 32 34 36 34 33 34 34 36 35 35 38 38 37 37 35 33 33 32 33 33 29 27 29 29 28 28 33 35 34 31 28 28 25 15 13 16 15 15 15 14 12 13 14 13 10 9 10 10 9 11 19 28 28 26 28 26 22 21 19 18 18 19
19 19 19 20 20 21 20 19 18 18 17 16 14 13 12 12 13 15 14 16 18 18 19 21 23 27 30 32 32 31 31 32 32 34 35 36 39 38 37 38 36 34 34 33 33 32 28 28 30 31 30 29 32 35 35 32 30 30 25 17 16 19 16 12 12 11 10 12 14 15 11 9 10 10 11 11 13 22 28 29 29 28 25 24 21 18 17 19
19 19 19 20 20 19 18 16 17 17 15 13 11 9 9 9 9 10 10 11 15 16 14 15 20 24 27 30 30 27 28 30 31 32 34 37 39 38 39 40 38 36 35 35 35 32 28 28 31 32 32 30 29 33 35 34 35 32 25 17 15 19 18 11 9 9 8 10 13 16 14 10 10 10 11 13 12 17 27 30 28 26 26 25 24 21 18 19
18 19 19 19 19 17 15 15 16 16 14 11 8 6 5 6 7 6 7 9 11 11 9 12 15 17 23 29 27 24 26 30 31 32 33 37 38 38 39 40 39 38 36 36 35 32 29 29 32 33 32 31 31 35 37 36 36 31 25 19 15 17 19 14 11 9 9 12 12 14 14 11 11 10 9 11 12 15 23 29 28 27 27 26 25 23 19 19
18 19 19 18 17 14 13 13 14 14 13 10 6 3 3 4 5 6 8 6 5 5 5 7 9 12 19 21 19 21 27 28 30 33 34 35 37 37 37 39 40 40 38 36 33 32 30 30 31 31 30 33 34 35 36 34 32 29 27 22 13 15 18 16 14 11 10 15 14 13 13 12 13 12 9 8 10 13 17 24 28 30 29 27 26 25 22 20
17 18 18 17 14 12 11 12 13 13 11 8 5 2 1 3 4 7 7 4 1 2 2 3 8 14 15 13 13 20 27 25 27 33 34 35 37 36 37 40 41 40 39 37 36 33 29 25 28 30 29 29 32 33 34 32 27 28 28 22 14 17 18 16 19 19 18 19 13 12 13 13 14 14 10 9 9 11 11 14 23 31 31 28 28 27 23 21
17 17 17 15 12 10 10 11 12 12 10 8 6 3 1 2 5 6 5 6 4 2 1 4 10 11 10 11 15 21 24 19 20 28 32 35 35 35 38 39 39 40 38 39 39 34 28 21 22 30 29 25 26 29 32 33 29 30 31 26 22 21 20 18 22 23 24 20 10 11 13 12 15 15 13 12 11 10 10 9 14 26 31 28 28 28 25 22
16 16 16 13 10 9 9 10 11 11 10 7 6 5 3 4 6 6 6 6 3 1 3 7 8 5 8 14 17 21 22 16 15 22 28 34 34 36 40 39 38 37 36 37 36 31 27 22 18 26 28 26 26 23 24 30 32 33 33 29 26 25 21 21 22 21 21 18 14 16 15 14 16 15 14 14 14 12 11 9 11 20 27 25 25 26 25 23
15 15 14 11 9 8 8 9 9 10 9 7 5 4 4 6 6 5 8 8 5 3 2 4 4 4 10 17 20 22 21 18 16 16 22 30 32 34 36 35 35 32 28 28 28 27 29 28 24 25 27 31 32 26 24 29 34 36 36 31 29 27 23 22 22 20 17 17 18 21 18 17 17 15 15 15 17 17 13 10 12 16 21 21 21 22 23 23
14 15 12 9 8 7 8 9 8 9 9 7 4 5 6 8 8 7 8 8 5 5 6 2 2 2 13 18 17 20 22 19 13 8 14 23 27 31 31 29 30 29 23 21 23 27 31 32 30 28 28 31 30 29 29 31 32 36 38 36 32 27 23 20 19 16 13 16 20 22 20 20 19 18 18 16 16 19 17 11 11 14 19 21 21 21 22 23
14 14 11 8 8 7 8 7 7 9 7 6 6 7 9 9 7 6 9 9 3 3 7 1 6 2 16 17 11 12 17 17 10 5 9 16 19 25 27 27 27 26 23 21 21 24 28 32 31 25 26 30 31 31 34 34 32 33 35 36 34 27 20 15 9 3 5 13 21 21 22 23 21 20 19 17 17 19 20 15 12 13 18 23 24 22 24 25
13 12 9 8 8 7 8 7 6 7 4 5 5 6 7 5 3 6 11 9 4 4 6 5 4 9 17 16 11 7 10 14 12 7 10 12 14 17 21 26 28 27 26 25 24 24 26 30 27 22 24 28 32 33 34 32 31 34 35 35 31 24 19 15 10 6 7 16 21 20 21 22 20 20 19 19 20 21 21 19 16 15 16 22 26 25 25 25
12 11 8 7 7 6 7 7 5 4 3 4 4 3 3 2 3 8 9 3 3 8 10 8 9 11 12 11 13 13 14 14 9 10 15 12 15 18 19 25 28 29 30 29 29 27 26 25 22 20 23 25 29 32 32 27 26 32 37 36 31 28 26 22 20 20 19 24 26 23 23 23 21 20 19 18 19 19 19 17 16 16 16 20 25 27 29 27
11 9 6 5 7 6 7 6 5 3 2 1 2 1 2 2 4 6 5 2 5 11 13 12 13 14 13 13 21 23 19 17 13 12 14 16 19 21 24 29 30 32 34 34 31 27 26 24 20 22 26 25 26 29 32 31 27 32 39 38 32 30 29 27 27 26 24 28 30 29 29 28 27 25 22 20 18 14 12 13 15 15 16 17 19 24 32 32
10 8 5 4 5 5 7 6 4 3 1 1 2 3 5 3 3 5 6 7 7 10 14 17 19 22 19 19 27 24 20 24 20 10 16 23 25 26 29 31 31 34 37 36 30 24 26 28 23 25 27 25 26 28 33 35 31 32 38 40 37 32 29 30 29 27 25 28 29 29 30 29 28 26 24 23 22 17 13 12 14 15 15 16 15 18 27 32
9 7 5 4 3 5 8 6 3 3 1 1 3 3 4 3 3 6 8 9 8 10 14 18 21 24 21 21 27 24 22 27 23 13 18 26 27 28 31 30 29 32 34 34 31 23 24 27 24 23 25 26 30 31 31 33 31 28 30 34 37 35 31 30 27 26 27 29 27 25 25 25 25 25 23 21 21 21 20 16 14 16 15 16 17 16 19 25
8 7 5 4 2 4 8 5 2 3 2 2 2 1 2 1 2 4 7 8 8 10 13 15 18 20 18 19 24 25 22 21 21 20 22 24 26 31 35 33 29 29 30 33 34 24 20 23 19 17 19 22 28 30 28 30 31 28 25 22 25 29 28 24 22 24 28 29 25 20 19 21 24 25 24 21 18 18 19 17 16 17 17 17 18 18 17 19
6 5 4 3 1 4 6 4 2 2 3 2 1 1 3 1 1 2 6 6 7 9 11 13 14 14 12 15 20 21 15 15 18 20 21 21 23 30 36 35 30 31 34 37 34 26 24 24 18 11 11 11 18 26 28 31 35 35 30 22 18 21 26 24 23 27 32 32 28 23 22 22 24 24 24 23 22 21 20 19 17 17 18 19 19 19 19 19
6 4 4 2 0 3 5 3 2 2 1 3 0 3 3 1 2 2 6 8 6 6 8 10 10 9 9 13 18 15 10 14 15 14 18 18 17 26 36 36 31 33 37 38 34 27 26 26 19 15 15 11 13 23 27 33 40 38 32 28 24 24 28 28 27 29 34 36 33 29 27 26 24 22 21 24 24 23 23 23 21 19 18 19 20 20 20 19
6 4 5 4 0 2 3 2 3 3 1 2 2 2 1 2 2 3 6 10 8 5 6 8 9 4 5 15 20 11 8 15 13 10 16 18 14 21 33 35 33 35 37 38 37 30 27 27 22 19 19 17 16 22 25 31 37 37 34 31 29 30 31 30 29 31 35 39 36 32 30 28 26 22 22 25 25 22 22 22 21 20 19 19 20 21 22 21
6 4 4 3 1 1 3 3 2 2 1 1 2 1 3 3 4 4 6 8 8 5 4 8 9 4 3 14 19 9 7 15 15 9 13 18 16 18 27 33 36 40 41 40 39 34 31 31 28 25 26 24 21 21 22 26 32 36 38 30 26 34 36 33 31 32 35 38 35 31 30 30 29 24 23 27 27 22 23 23 22 21 20 21 22 22 23 23
5 4 4 3 0 0 2 3 2 2 2 3 2 0 1 3 4 4 6 10 11 8 4 5 8 7 6 11 14 8 6 11 14 10 10 16 18 18 24 31 37 42 43 41 39 36 34 33 31 29 27 24 22 20 20 24 30 37 38 26 21 34 39 35 34 35 36 38 34 32 33 33 30 27 26 29 28 22 20 20 21 21 20 22 24 24 24 24
5 4 3 4 1 1 2 4 4 3 1 4 1 2 3 3 4 5 7 9 10 11 8 5 8 9 9 10 10 10 10 9 11 12 11 14 20 21 24 30 37 43 44 42 41 39 35 32 29 28 26 22 22 23 22 24 30 38 42 30 25 35 40 37 37 40 40 40 37 35 35 35 33 30 29 30 28 23 21 20 20 22 22 23 25 26 26 25
4 4 3 3 2 1 3 5 5 3 2 4 2 2 3 2 5 5 5 7 9 12 11 9 9 8 7 9 10 10 11 10 9 11 12 16 21 23 25 30 36 42 44 43 43 41 38 34 31 29 26 23 23 25 26 25 28 37 41 34 30 37 40 36 36 41 44 43 42 39 36 36 36 34 31 30 27 23 22 22 23 24 24 24 25 27 27 27
3 3 4 5 4 4 5 5 5 4 4 5 4 3 2 0 2 4 5 7 9 10 10 9 11 10 7 6 8 8 9 9 8 9 12 17 20 23 27 30 34 38 42 43 44 43 39 37 36 33 30 27 26 26 26 25 26 34 41 39 38 41 43 39 37 42 45 44 45 44 42 40 40 38 34 32 28 22 19 21 23 25 25 25 26 28 28 28
2 2 4 5 5 5 5 5 5 6 7 8 6 5 3 1 1 1 3 5 6 7 8 7 9 12 12 9 9 8 8 8 7 7 9 13 17 20 24 27 29 32 36 40 43 44 41 39 39 37 35 34 33 30 27 24 26 33 40 44 45 43 41 42 43 45 46 45 46 47 46 45 44 41 37 32 29 26 22 19 20 22 23 23 26 29 30 30
3 3 4 4 4 5 5 5 6 6 8 9 8 7 6 4 2 2 2 1 2 4 6 5 6 10 11 10 9 9 8 8 8 7 7 8 11 13 15 19 23 26 30 33 36 37 37 36 37 36 34 34 33 30 27 25 26 30 35 41 45 41 38 41 46 48 47 46 47 47 47 47 46 43 38 33 30 30 29 24 20 20 21 22 24 28 31 33
3 3 4 4 5 5 5 6 6 5 6 9 10 10 8 6 5 4 3 3 2 2 1 1 3 6 7 6 6 6 8 8 7 8 9 9 9 9 10 13 18 22 24 26 28 30 32 32 33 33 31 30 30 29 27 26 25 27 31 35 37 35 33 38 45 49 48 46 46 46 46 46 46 44 41 37 32 30 30 30 27 24 23 23 24 25 28 31
Wind_Direction
283 280 277 276 275 274 272 270 268 265 262 259 256 252 249 248 246 245 244 243 241 239 235 233 231 231 230 228 226 224 223 222 218 217 218 219 222 222 221 221 221 222 224 226 225 224 223 223 225 224 219 214 211 207 211 214 215 213 228 291 331 332 341 2 40 103 120 132 143 151 153 158 158 157 164 165 161 157 153 154 150 129 126 124 140 160 156 147
285 282 279 276 275 274 272 271 269 267 264 262 259 256 252 249 247 245 243 242 241 240 238 235 232 230 229 229 227 225 223 220 218 216 217 220 222 221 221 222 221 221 223 225 226 225 223 223 224 225 222 217 214 210 210 213 213 220 232 283 338 340 338 359 33 120 132 140 145 154 155 154 157 154 162 166 161 153 144 155 147 128 130 122 141 159 164 156
287 284 281 279 276 273 272 270 269 267 266 264 261 259 256 253 249 246 244 241 240 239 239 238 235 232 229 228 227 226 223 221 218 215 216 221 222 220 220 221 221 221 222 223 225 225 224 223 223 224 224 218 217 213 211 214 213 222 231 257 339 352 332 10 23 121 139 147 148 154 148 149 163 150 148 164 166 156 144 164 149 137 151 137 143 158 164 163
290 285 283 281 278 274 271 270 268 267 265 264 262 260 258 256 253 250 246 243 240 238 238 238 237 235 232 229 227 226 225 222 219 216 216 220 221 219 219 220 221 220 220 222 222 223 222 222 222 223 223 219 217 214 212 214 215 224 227 237 269 343 326 32 87 150 146 153 154 152 145 157 171 152 151 165 166 166 155 170 157 154 166 146 148 158 162 166
293 288 285 282 279 277 273 270 268 266 264 263 262 261 259 257 256 253 250 246 242 239 237 236 236 236 234 231 228 226 225 222 221 221 219 220 221 219 219 219 220 220 219 221 221 222 219 218 220 219 220 217 216 215 214 215 214 224 229 235 240 207 247 44 142 176 158 159 163 157 154 164 172 162 164 167 169 179 172 175 166 166 170 154 153 152 156 165
295 290 286 283 280 278 275 272 268 266 264 263 261 260 259 257 256 254 252 250 246 242 238 236 235 235 234 233 231 227 225 221 220 223 221 220 220 217 218 218 219 219 218 219 219 221 219 216 214 212 213 210 209 209 212 215 213 221 228 231 230 208 205 127 179 190 166 166 174 169 168 168 171 174 173 168 174 188 183 179 166 168 176 165 159 149 147 157
296 292 288 284 281 278 275 273 270 266 264 262 261 259 257 256 255 254 253 251 249 246 242 238 235 234 233 233 232 229 226 220 218 224 221 220 221 216 216 216 217 218 216 217 217 218 218 215 210 204 203 201 202 202 204 211 211 216 224 230 227 212 209 195 197 195 174 176 185 182 183 174 169 177 178 176 181 181 180 181 169 166 170 169 166 153 145 149
297 294 290 285 281 278 275 273 271 268 264 261 260 258 257 255 253 252 252 251 250 249 246 242 237 234 232 231 231 230 228 221 217 225 222 219 221 217 214 214 215 217 216 215 215 216 215 213 208 201 195 191 194 196 197 204 207 211 219 226 225 213 217 209 199 200 187 188 193 190 192 184 174 177 181 184 187 182 182 183 173 162 159 167 168 153 145 148
300 297 294 289 284 280 276 273 271 269 266 263 259 257 256 255 253 251 250 250 250 249 248 246 241 236 233 230 230 229 228 221 217 224 223 218 221 218 214 213 214 215 215 215 214 214 215 212 207 202 201 194 191 189 191 199 200 205 212 218 215 202 211 206 187 194 193 193 199 197 201 198 186 182 183 184 186 188 193 190 178 167 161 165 166 154 150 156
302 300 297 293 289 284 280 276 272 270 268 265 261 258 255 254 253 252 250 248 248 248 247 247 244 240 235 231 229 227 226 220 217 224 223 217 219 219 215 213 215 215 213 213 213 212 212 211 207 204 204 200 191 188 189 192 197 202 205 211 209 199 206 199 185 194 197 198 206 205 209 210 197 188 185 187 190 190 194 192 181 172 165 165 166 161 160 165
302 300 297 294 291 287 283 279 275 272 269 267 264 260 256 254 252 251 250 248 247 246 246 246 245 243 239 233 230 226 221 216 217 224 224 217 218 219 216 214 216 215 212 211 212 211 209 211 210 206 202 194 189 193 193 187 193 202 202 210 209 201 202 191 187 194 194 198 207 210 211 210 200 192 187 189 195 191 194 193 180 172 168 165 167 167 167 170
302 299 297 294 291 287 283 280 277 274 271 268 265 262 259 255 253 250 249 248 247 246 245 245 244 244 241 236 232 225 218 212 216 224 222 218 219 219 218 216 217 216 212 210 211 211 211 212 211 210 207 195 186 193 194 186 192 196 199 210 201 191 191 181 181 185 186 195 202 208 208 208 204 198 193 190 192 190 193 192 182 176 172 167 167 171 169 168
301 298 296 293 290 287 283 278 275 273 270 268 266 263 260 257 254 251 249 248 246 245 245 244 243 243 241 238 233 226 218 210 216 223 220 217 219 218 218 217 217 217 213 211 211 212 214 214 212 213 212 203 191 192 191 185 192 194 200 208 195 193 195 178 179 187 193 202 204 207 206 213 210 202 198 192 189 191 192 191 188 183 177 172 170 175 174 171
302 299 295 291 288 285 282 278 274 271 268 266 264 262 261 258 255 252 250 248 246 245 244 243 243 242 240 239 235 229 219 209 214 222 218 216 217 217 219 217 217 217 214 212 212 213 215 213 214 215 210 207 202 199 194 188 191 193 201 207 201 204 197 182 193 195 195 193 200 208 208 218 218 206 202 196 190 191 194 194 193 189 181 178 172 178 181 175
303 299 294 290 286 282 280 277 274 270 267 264 262 260 259 257 255 252 250 248 247 245 243 242 242 241 240 238 235 231 222 209 213 219 216 215 216 216 218 218 218 217 214 213 211 213 213 212 214 211 204 204 201 201 201 197 194 192 200 208 209 209 197 198 209 203 213 199 187 198 208 224 224 209 202 199 194 188 194 196 194 193 188 183 175 178 184 178
304 299 294 289 285 281 278 277 276 272 268 265 262 259 258 257 255 253 250 248 246 245 243 242 240 240 240 238 235 233 226 214 213 218 216 215 215 215 216 217 217 216 214 212 212 212 210 210 210 204 205 202 194 196 201 201 197 192 198 204 210 213 204 209 212 208 222 217 202 201 206 221 221 208 200 199 196 184 191 200 194 192 193 190 178 178 184 179
304 299 294 289 285 282 279 277 277 275 272 267 263 260 257 256 255 253 251 248 246 244 243 242 240 239 238 236 233 231 227 219 214 217 217 215 215 215 214 216 216 216 214 210 210 212 208 206 200 199 206 200 190 192 193 198 199 194 197 202 208 213 210 212 217 220 217 208 207 209 210 211 215 213 205 202 199 186 188 199 197 193 195 195 183 178 184 181
304 299 294 290 287 285 282 280 277 276 274 271 267 263 258 256 253 252 251 249 247 244 242 241 239 237 234 232 230 226 224 221 214 215 217 215 215 215 214 214 215 216 214 209 209 211 210 207 200 197 199 192 186 191 191 194 196 197 202 207 210 206 205 214 220 230 221 206 205 206 210 210 217 222 213 206 203 195 193 199 201 196 196 198 187 180 185 184
305 301 296 292 289 288 286 284 281 277 275 273 271 266 262 258 254 251 250 248 247 244 242 240 238 236 233 230 229 226 224 223 216 213 215 214 214 215 214 214 213 214 213 209 209 211 211 211 207 203 196 184 180 185 193 192 184 187 210 224 221 205 203 215 218 225 224 214 207 208 216 215 219 226 214 207 204 200 199 201 204 200 196 196 190 184 185 187
306 302 300 297 294 292 290 289 286 283 279 276 273 269 264 260 256 252 249 246 245 243 242 239 236 235 234 231 230 227 224 224 219 214 214 213 212 213 214 214 212 212 212 209 209 211 212 212 211 209 198 183 176 179 192 193 180 169 183 237 233 215 212 220 219 222 224 221 211 214 222 217 218 224 215 209 202 196 198 202 204 201 198 195 190 187 189 190
306 304 302 299 298 296 294 292 290 288 284 279 275 271 266 261 257 254 250 247 244 242 240 237 233 232 232 230 229 227 224 222 220 217 216 214 212 210 213 215 213 211 211 209 209 210 211 211 209 209 200 185 177 177 186 194 186 172 163 210 234 225 221 224 223 223 225 228 219 215 218 215 219 224 221 214 203 195 196 201 205 200 199 200 194 190 193 196
308 306 304 303 302 300 298 297 295 292 287 282 276 271 267 263 259 256 252 249 244 241 239 236 234 232 231 230 228 227 225 221 219 218 216 215 213 210 211 215 213 211 211 210 209 209 209 209 208 206 201 190 182 180 184 189 190 179 166 184 227 224 218 220 226 224 223 228 225 217 212 205 216 228 231 218 203 197 199 201 204 198 196 206 205 196 193 197
310 308 307 307 305 305 304 302 300 295 289 283 276 271 267 263 260 255 252 250 246 242 239 235 233 232 231 231 229 227 224 220 219 218 216 215 214 211 210 213 213 211 212 211 210 210 207 206 208 205 201 194 186 186 189 186 187 183 171 181 223 216 209 210 217 221 221 222 222 219 208 195 205 225 235 215 197 195 203 203 199 197 198 202 206 202 194 192
310 309 310 310 310 310 309 307 304 299 293 286 280 274 267 263 260 255 253 252 247 242 238 235 232 230 228 229 230 228 225 221 218 218 215 214 215 212 209 211 213 211 213 213 211 210 206 203 205 204 202 198 190 189 195 188 182 184 177 184 223 216 208 207 211 218 218 221 222 218 209 196 201 215 220 208 196 194 202 203 197 201 207 200 198 204 198 190
310 312 312 313 314 314 313 311 308 304 300 294 286 278 268 262 258 256 254 253 249 242 236 233 231 231 229 229 230 229 227 223 219 217 213 212 216 213 210 211 212 211 213 215 214 212 205 201 204 203 201 200 193 192 199 193 183 186 183 179 204 214 211 208 213 215 210 217 219 212 208 200 203 212 207 208 208 201 197 197 196 201 207 198 195 202 199 195
310 313 314 316 318 317 317 316 314 313 312 305 294 281 269 260 255 254 254 255 254 243 233 228 226 227 228 229 229 226 225 222 217 214 211 211 214 212 209 210 210 212 213 214 216 214 205 201 203 201 199 201 198 196 200 199 190 187 185 180 192 204 206 201 203 208 212 221 216 204 199 198 203 213 212 213 221 208 197 195 197 199 201 199 199 202 201 203
312 315 316 319 321 321 322 323 323 322 319 311 300 283 268 255 248 252 254 252 251 243 228 217 217 221 224 226 226 222 222 222 217 212 210 211 213 211 209 208 208 211 213 214 215 212 205 205 204 201 199 196 198 200 200 202 200 190 182 186 198 203 202 191 180 189 209 216 212 206 197 194 203 210 212 214 222 213 202 199 197 198 204 205 204 203 203 207
313 315 318 322 324 324 327 331 332 330 327 323 311 286 266 245 238 240 230 231 248 251 229 214 215 217 222 225 222 214 215 220 217 210 208 210 212 210 210 210 208 209 211 214 216 211 205 207 206 202 200 194 194 200 201 204 205 194 182 188 208 214 202 186 174 182 212 217 211 212 210 210 214 212 213 215 220 220 209 202 197 197 204 206 206 206 204 207
314 317 322 325 325 326 332 339 340 338 336 336 328 297 245 221 225 222 211 215 259 274 247 232 221 216 226 229 217 211 213 215 216 209 202 207 210 208 209 210 209 210 210 211 213 211 207 211 211 203 200 200 198 199 203 207 202 192 189 186 197 224 206 182 176 179 219 232 221 216 219 225 227 221 219 219 221 225 217 208 204 202 202 203 204 204 201 202
315 319 325 327 325 327 338 344 343 340 340 346 348 336 209 191 200 213 210 189 212 291 302 254 227 221 229 221 198 209 213 209 217 214 202 203 206 205 208 211 209 209 211 212 212 207 202 208 216 207 199 203 205 200 203 210 200 188 191 179 177 223 220 189 179 183 208 224 224 227 222 218 226 228 227 232 232 231 229 218 207 201 200 200 199 200 201 199
317 323 328 327 325 331 340 343 342 343 347 356 8 35 77 163 176 193 181 156 182 249 267 246 241 231 219 196 187 205 209 202 219 221 209 205 204 202 206 209 209 208 210 214 214 207 196 194 213 213 201 199 207 203 201 208 199 184 186 177 175 209 225 207 186 189 207 208 207 237 231 221 232 236 235 237 236 240 245 232 204 198 199 200 199 200 202 201
320 327 329 327 329 338 340 337 341 347 354 7 26 50 77 135 159 184 166 145 166 288 303 266 250 225 193 184 184 196 198 194 218 223 212 208 204 204 206 206 206 208 211 215 215 209 196 188 207 217 206 198 201 194 192 205 201 188 188 182 181 198 216 217 203 196 200 193 199 226 228 230 238 238 240 236 229 241 252 241 214 202 199 201 200 199 201 202
323 330 330 330 337 344 338 330 336 349 2 19 35 60 106 125 124 149 142 119 130 138 4 285 234 181 177 175 177 185 186 194 219 226 216 209 204 205 208 206 204 201 205 214 212 207 198 191 202 210 203 203 202 186 181 199 203 195 190 184 186 199 206 211 214 208 190 181 206 223 221 229 235 236 242 236 225 233 245 240 226 212 203 199 196 194 200 204
326 331 330 334 344 345 337 328 334 353 11 26 53 91 115 124 113 109 109 96 116 126 87 68 314 143 165 167 172 181 184 195 216 232 223 215 207 205 204 205 204 194 191 198 200 207 203 198 205 204 196 199 196 187 189 198 202 200 193 185 187 199 204 203 211 218 204 196 214 225 226 232 237 239 243 238 228 229 233 234 229 221 212 203 197 195 199 202
329 332 330 340 350 343 337 334 342 355 15 56 93 112 118 124 115 96 92 86 86 88 91 126 311 88 150 153 152 173 183 196 222 246 219 214 205 202 202 200 193 184 182 180 184 205 206 203 213 212 202 193 179 183 198 199 196 193 192 192 191 195 196 182 178 212 223 217 223 227 231 237 240 242 242 239 236 231 228 230 229 227 220 210 205 202 200 203
331 332 331 346 349 337 342 350 353 356 25 103 119 129 127 122 126 134 123 115 162 166 123 173 212 132 140 139 131 158 185 198 224 208 175 187 180 180 193 194 181 175 183 179 178 201 208 204 213 220 217 202 183 190 204 200 194 188 188 195 193 186 180 171 177 198 213 228 234 235 237 241 244 245 245 244 241 233 226 226 227 229 224 212 210 209 205 205
332 334 336 351 348 341 358 1 350 6 58 112 110 119 128 124 164 156 144 130 172 152 135 157 170 151 151 154 160 181 190 196 204 156 150 164 157 156 175 187 182 178 185 184 181 194 202 197 201 215 223 213 198 204 209 204 198 188 186 195 191 177 176 186 194 193 203 224 232 239 242 243 246 243 240 241 238 228 222 224 226 230 226 213 208 209 208 205
332 334 337 355 353 353 15 6 340 15 76 95 82 65 44 130 176 166 157 154 143 148 152 161 175 180 182 189 187 184 178 174 164 152 171 176 166 174 186 189 190 185 185 189 189 192 194 183 186 207 218 215 205 207 210 209 203 190 189 195 192 178 177 190 189 180 196 219 226 234 237 236 240 239 235 235 231 218 216 224 226 229 230 222 213 208 207 207
330 330 334 347 350 7 28 20 353 15 57 80 88 62 44 79 182 175 174 191 177 170 170 169 183 190 187 192 194 185 166 159 156 177 208 191 183 195 197 191 194 191 188 190 189 192 194 185 187 205 213 214 206 204 211 211 204 200 199 197 193 182 178 189 188 179 197 217 223 233 239 235 239 243 241 239 237 233 232 233 229 228 228 227 224 214 206 205
327 324 327 325 330 17 30 31 17 13 351 118 100 74 60 97 177 171 192 221 209 181 173 176 191 195 189 190 189 180 164 158 164 194 206 195 194 197 195 194 196 193 190 185 180 185 192 189 196 209 215 220 212 205 207 208 204 203 204 203 200 193 186 191 191 185 200 219 224 231 240 241 244 248 242 236 240 243 238 234 233 231 228 223 222 219 209 200
328 322 315 309 319 29 30 22 6 18 31 60 99 74 66 128 186 160 191 213 200 192 185 185 199 199 197 201 188 172 163 168 184 195 191 195 200 192 190 195 195 189 186 182 179 173 168 178 197 213 218 225 220 208 200 200 202 199 197 202 204 200 197 202 202 194 203 221 228 229 238 244 244 243 240 237 240 241 234 232 233 232 231 227 221 219 218 210
325 310 294 297 340 26 15 349 331 37 36 8 212 122 58 14 276 171 184 182 181 198 187 179 197 199 198 202 182 166 169 189 198 193 189 198 200 193 194 193 187 182 182 184 184 168 154 170 186 183 181 200 215 213 203 194 195 195 192 184 177 193 206 205 202 200 204 216 225 228 234 240 238 238 242 244 238 231 233 238 233 227 229 229 226 221 218 217
315 292 284 285 98 27 2 330 359 51 292 283 6 80 53 330 281 227 191 175 169 203 190 168 177 190 188 173 159 153 177 198 198 190 190 197 197 196 198 193 184 180 181 186 189 174 162 170 169 146 140 148 185 204 205 198 196 194 189 178 173 192 206 199 195 200 204 212 221 227 231 233 233 231 232 233 227 222 228 236 233 228 227 228 228 226 221 217
311 298 293 298 36 41 359 314 6 39 289 292 46 49 318 254 256 250 200 175 169 206 207 171 164 181 177 156 151 149 167 185 195 189 184 192 199 199 198 195 189 182 181 187 191 186 176 175 171 157 151 154 176 193 199 200 199 192 183 181 189 197 195 191 196 202 204 209 218 225 228 231 232 227 221 223 223 213 209 218 227 227 225 224 225 227 226 223
321 316 288 290 30 28 316 310 349 26 12 33 68 338 282 245 227 237 215 194 189 195 187 173 177 203 174 158 163 169 167 175 185 180 177 188 194 193 193 192 189 185 184 187 190 192 191 187 185 179 169 168 182 199 200 197 197 191 182 183 201 203 193 190 202 210 208 208 215 220 222 225 228 225 221 224 224 211 200 209 224 229 227 224 223 225 227 227
315 311 278 277 350 113 290 298 305 325 33 54 60 201 222 218 222 225 218 213 209 207 199 175 183 198 195 176 177 187 182 176 183 186 187 186 182 180 182 184 185 185 186 187 188 191 195 195 193 192 190 186 189 198 199 191 191 189 182 182 208 209 198 196 207 215 213 210 215 221 221 223 225 223 220 220 218 209 205 212 223 229 228 224 223 224 225 227
295 296 287 288 311 119 260 256 255 267 97 89 78 211 184 198 231 230 219 214 210 213 217 199 186 192 195 195 192 183 177 178 186 193 191 178 173 174 178 182 186 187 188 189 189 190 193 195 196 201 207 210 208 214 218 208 199 192 184 186 206 207 200 201 211 215 212 211 216 221 223 225 226 223 220 219 219 218 218 218 219 224 224 221 221 224 225 226
292 298 304 292 272 247 262 250 243 244 168 135 134 183 184 221 240 236 223 208 206 212 214 204 199 201 196 197 195 177 173 176 175 177 177 172 172 174 177 183 189 191 191 190 191 194 198 201 203 205 211 217 222 228 230 224 214 200 190 192 207 206 199 202 215 216 211 211 216 220 223 226 227 227 224 225 229 231 229 224 221 223 225 223 221 223 226 228
277 293 300 293 277 263 265 251 233 218 189 168 153 162 168 162 228 230 225 214 213 213 211 205 206 217 225 212 197 180 176 178 166 158 166 172 176 179 179 182 189 194 195 194 195 200 206 211 213 212 212 213 218 225 226 225 221 206 195 197 208 209 201 201 213 216 211 213 218 221 224 227 228 230 231 233 235 236 233 227 222 221 225 227 224 222 224 227
248 262 281 290 295 282 275 264 237 216 204 197 185 181 185 132 114 176 213 224 225 216 215 212 210 222 234 232 218 210 197 191 182 166 163 171 180 187 187 185 187 192 195 198 202 206 212 219 221 221 222 221 219 220 219 217 216 209 202 203 209 212 206 203 212 216 212 213 218 221 225 228 230 232 234 236 238 237 235 232 224 220 221 223 223 220 220 223
232 230 245 270 287 276 264 255 243 230 221 217 209 203 204 196 156 115 104 138 201 210 221 221 208 221 230 226 220 225 228 221 205 187 179 181 185 189 190 190 191 193 195 199 205 208 212 218 221 222 224 224 220 215 210 209 212 212 212 212 212 213 210 208 214 218 216 215 219 222 225 227 230 233 234 237 239 240 241 240 233 222 214 215 219 220 221 222
249 243 242 254 267 267 258 248 243 242 231 222 217 215 213 208 198 183 148 127 136 148 157 185 209 228 239 232 214 214 227 228 206 194 202 205 199 189 182 190 196 197 197 201 206 207 207 211 216 217 216 217 217 211 206 208 210 211 216 219 216 214 213 215 219 222 221 220 221 224 226 226 230 234 237 238 241 242 243 242 237 229 219 216 220 223 224 224
Height
5844 5844 5844 5844 5844 5844 5845 5845 5845 5846 5846 5847 5847 5847 5848 5848 5849 5850 5851 5852 5852 5853 5854 5856 5857 5858 5860 5861 5862 5864 5865 5866 5868 5869 5869 5870 5871 5872 5874 5875 5876 5877 5878 5879 5881 5883 5885 5886 5887 5889 5891 5893 5895 5896 5897 5897 5897 5898 5899 5898 5899 5899 5897 5897 5897 5896 5896 5896 5897 5899 5901 5902 5903 5904 5905 5906 5907 5907 5908 5909 5909 5910 5910 5911 5912 5913 5913 5914
5842 5841 5841 5841 5841 5841 5841 5842 5842 5843 5843 5844 5844 5845 5845 5846 5846 5847 5848 5849 5850 5851 5852 5853 5854 5856 5857 5858 5860 5862 5863 5864 5865 5866 5868 5868 5869 5871 5872 5873 5874 5875 5876 5878 5879 5881 5883 5884 5886 5888 5890 5892 5894 5895 5896 5896 5897 5898 5898 5899 5899 5898 5897 5898 5898 5897 5897 5898 5899 5900 5902 5904 5904 5905 5906 5907 5908 5908 5909 5910 5910 5910 5911 5912 5913 5914 5914 5914
5839 5839 5838 5838 5838 5838 5838 5839 5839 5840 5840 5841 5842 5842 5843 5843 5844 5844 5845 5846 5847 5848 5849 5850 5851 5853 5854 5856 5857 5859 5861 5862 5863 5865 5866 5866 5867 5869 5871 5872 5873 5874 5875 5876 5878 5879 5881 5883 5884 5886 5888 5891 5893 5894 5895 5896 5896 5897 5898 5898 5899 5899 5898 5898 5899 5899 5899 5901 5901 5902 5905 5906 5905 5906 5908 5909 5909 5909 5909 5909 5910 5910 5911 5913 5914 5915 5915 5915
5837 5836 5835 5835 5835 5835 5835 5835 5836 5836 5837 5837 5838 5839 5840 5840 5841 5842 5842 5843 5844 5846 5846 5847 5849 5850 5852 5853 5855 5856 5858 5860 5861 5862 5863 5864 5865 5867 5869 5870 5871 5872 5874 5875 5876 5877 5879 5881 5882 5884 5887 5890 5891 5893 5894 5895 5895 5897 5897 5898 5899 5899 5899 5899 5900 5900 5900 5902 5903 5904 5907 5907 5906 5907 5908 5908 5909 5910 5910 5909 5910 5911 5912 5913 5914 5915 5916 5917
5834 5834 5833 5832 5832 5832 5832 5832 5833 5833 5833 5834 5835 5836 5837 5837 5838 5839 5839 5840 5841 5843 5844 5845 5846 5847 5849 5850 5852 5854 5855 5858 5860 5860 5861 5862 5864 5865 5867 5868 5869 5871 5872 5873 5875 5876 5878 5879 5881 5883 5885 5888 5890 5891 5893 5894 5895 5896 5897 5897 5898 5899 5900 5900 5901 5901 5900 5901 5903 5905 5906 5906 5907 5908 5908 5909 5909 5910 5910 5910 5911 5912 5912 5913 5914 5915 5917 5918
5832 5831 5831 5830 5829 5829 5829 5829 5829 5830 5830 5831 5832 5833 5833 5834 5835 5835 5836 5837 5838 5839 5841 5842 5843 5845 5846 5848 5849 5851 5853 5856 5858 5858 5859 5861 5862 5863 5865 5867 5868 5869 5871 5872 5874 5875 5876 5878 5880 5882 5884 5886 5888 5890 5891 5892 5894 5895 5896 5896 5897 5899 5900 5900 5901 5900 5900 5900 5902 5904 5906 5906 5908 5908 5909 5910 5909 5909 5910 5911 5911 5912 5913 5914 5915 5916 5917 5918
5830 5829 5828 5827 5827 5826 5826 5826 5826 5826 5827 5828 5828 5829 5830 5831 5831 5832 5833 5834 5835 5836 5838 5839 5840 5842 5843 5845 5846 5849 5851 5854 5855 5855 5857 5859 5860 5862 5863 5865 5866 5868 5869 5870 5872 5873 5875 5877 5879 5880 5882 5884 5886 5888 5889 5891 5892 5894 5894 5895 5896 5897 5899 5900 5901 5900 5900 5901 5902 5903 5905 5906 5908 5909 5909 5910 5910 5910 5911 5911 5912 5913 5914 5914 5915 5916 5917 5919
5827 5826 5826 5825 5824 5823 5823 5823 5823 5823 5823 5824 5825 5825 5826 5827 5828 5829 5830 5831 5832 5833 5835 5836 5837 5839 5840 5842 5844 5846 5848 5852 5854 5853 5855 5857 5858 5860 5861 5863 5864 5865 5867 5868 5870 5872 5874 5875 5878 5879 5881 5883 5884 5885 5887 5889 5891 5892 5893 5894 5896 5897 5898 5900 5900 5900 5900 5902 5902 5903 5905 5906 5907 5908 5909 5910 5910 5911 5911 5912 5912 5913 5914 5915 5916 5917 5918 5919
5824 5823 5823 5822 5821 5821 5820 5820 5820 5820 5820 5820 5821 5821 5822 5823 5824 5825 5826 5827 5829 5830 5832 5833 5834 5836 5837 5839 5841 5843 5846 5850 5851 5850 5852 5855 5856 5858 5859 5861 5862 5863 5865 5867 5869 5871 5872 5874 5877 5878 5879 5880 5881 5883 5885 5887 5890 5890 5892 5894 5895 5896 5897 5898 5899 5900 5901 5902 5903 5904 5904 5906 5907 5908 5909 5910 5910 5912 5912 5912 5913 5914 5915 5916 5917 5918 5919 5920
5821 5820 5820 5819 5818 5818 5817 5817 5816 5816 5816 5816 5817 5817 5818 5819 5820 5821 5822 5824 5825 5826 5828 5829 5831 5832 5834 5836 5838 5840 5844 5847 5848 5847 5849 5852 5854 5855 5857 5859 5860 5862 5864 5866 5867 5869 5871 5873 5874 5876 5877 5880 5881 5882 5883 5885 5887 5889 5890 5892 5894 5895 5896 5896 5897 5898 5900 5901 5903 5904 5904 5906 5907 5908 5909 5910 5911 5911 5912 5913 5914 5915 5915 5917 5918 5918 5919 5920
5818 5817 5817 5816 5816 5815 5814 5814 5813 5813 5813 5813 5813 5813 5814 5815 5816 5817 5818 5820 5821 5823 5824 5826 5827 5829 5831 5833 5835 5838 5842 5845 5845 5844 5846 5850 5851 5853 5855 5857 5858 5860 5862 5864 5866 5867 5869 5870 5872 5874 5876 5878 5881 5882 5882 5884 5887 5888 5889 5891 5892 5894 5895 5896 5896 5897 5899 5900 5902 5903 5904 5906 5907 5908 5908 5910 5911 5911 5913 5913 5914 5915 5916 5917 5918 5919 5920 5921
5816 5815 5814 5813 5813 5812 5812 5811 5810 5810 5810 5809 5809 5810 5810 5811 5812 5813 5814 5816 5817 5819 5820 5822 5824 5825 5828 5829 5831 5835 5838 5841 5841 5841 5844 5847 5849 5850 5853 5854 5856 5858 5860 5862 5864 5865 5866 5868 5871 5873 5874 5876 5878 5880 5881 5883 5885 5887 5888 5889 5891 5893 5895 5895 5895 5896 5899 5900 5901 5902 5904 5905 5906 5907 5908 5909 5911 5911 5913 5914 5914 5915 5916 5917 5919 5920 5921 5922
5814 5812 5811 5810 5810 5809 5808 5808 5807 5807 5806 5806 5806 5806 5806 5807 5808 5809 5810 5812 5813 5815 5816 5818 5820 5822 5824 5825 5828 5832 5835 5838 5838 5838 5841 5844 5846 5848 5850 5852 5854 5856 5859 5860 5862 5863 5865 5867 5870 5871 5874 5876 5877 5878 5880 5882 5884 5886 5887 5887 5890 5892 5893 5893 5893 5896 5898 5899 5900 5901 5903 5905 5905 5907 5908 5909 5910 5911 5912 5914 5914 5915 5916 5918 5919 5920 5921 5922
5811 5810 5809 5808 5807 5806 5805 5805 5804 5803 5803 5803 5802 5802 5802 5803 5804 5805 5806 5807 5809 5811 5812 5814 5816 5818 5820 5822 5825 5828 5831 5835 5835 5835 5839 5841 5843 5845 5847 5849 5851 5854 5857 5859 5861 5862 5863 5866 5868 5871 5874 5877 5878 5879 5880 5882 5883 5885 5886 5886 5889 5890 5891 5892 5894 5895 5897 5898 5900 5901 5902 5904 5904 5906 5907 5908 5909 5910 5912 5913 5914 5915 5917 5918 5919 5920 5921 5922
5808 5807 5806 5805 5804 5803 5802 5801 5801 5800 5800 5799 5799 5799 5799 5799 5800 5801 5802 5803 5805 5806 5808 5810 5812 5815 5817 5819 5822 5824 5827 5831 5831 5832 5835 5838 5840 5842 5844 5847 5849 5851 5855 5857 5859 5860 5863 5865 5867 5871 5874 5875 5877 5879 5880 5882 5882 5883 5884 5885 5887 5889 5891 5893 5893 5895 5897 5898 5899 5900 5902 5902 5903 5904 5906 5907 5908 5909 5910 5912 5914 5915 5917 5918 5919 5920 5921 5922
5806 5805 5803 5802 5801 5800 5799 5798 5797 5797 5796 5796 5795 5795 5795 5795 5796 5797 5798 5799 5800 5802 5804 5806 5809 5811 5813 5816 5819 5821 5824 5827 5828 5830 5833 5835 5837 5840 5842 5844 5846 5849 5852 5855 5857 5860 5862 5864 5866 5870 5871 5873 5876 5877 5878 5880 5881 5882 5884 5885 5886 5888 5891 5892 5893 5895 5897 5898 5899 5900 5901 5901 5902 5903 5904 5906 5907 5908 5910 5912 5913 5914 5916 5917 5918 5920 5921 5923
5803 5802 5800 5799 5798 5797 5796 5795 5794 5793 5793 5792 5792 5792 5792 5792 5792 5793 5794 5795 5796 5798 5800 5802 5805 5807 5809 5812 5815 5818 5820 5823 5826 5828 5830 5832 5835 5837 5839 5841 5844 5846 5849 5853 5856 5858 5859 5861 5863 5867 5868 5871 5874 5875 5876 5878 5880 5882 5883 5884 5885 5888 5890 5891 5893 5894 5895 5896 5897 5899 5901 5901 5901 5902 5903 5905 5906 5907 5909 5911 5912 5913 5915 5916 5918 5919 5921 5922
5800 5798 5797 5796 5794 5793 5793 5792 5791 5790 5789 5789 5788 5788 5788 5788 5788 5789 5790 5791 5792 5794 5796 5798 5801 5803 5805 5808 5810 5812 5815 5818 5822 5824 5826 5830 5832 5834 5837 5839 5841 5844 5847 5851 5853 5855 5857 5858 5860 5862 5865 5869 5872 5874 5876 5877 5880 5883 5884 5884 5885 5888 5890 5890 5891 5892 5893 5895 5896 5898 5900 5900 5900 5901 5903 5904 5905 5907 5908 5910 5911 5912 5914 5916 5917 5919 5920 5922
5797 5795 5794 5793 5791 5790 5789 5789 5788 5787 5786 5785 5784 5784 5784 5784 5784 5785 5786 5787 5788 5789 5791 5794 5797 5798 5800 5803 5805 5808 5811 5814 5818 5821 5823 5826 5829 5832 5834 5836 5839 5841 5844 5848 5850 5852 5854 5857 5859 5860 5863 5867 5870 5873 5875 5876 5879 5882 5884 5884 5884 5887 5890 5890 5891 5891 5892 5894 5895 5897 5898 5899 5900 5901 5902 5903 5904 5906 5907 5909 5910 5911 5913 5915 5916 5918 5920 5922
5794 5792 5791 5790 5788 5787 5786 5785 5784 5784 5783 5782 5781 5780 5780 5779 5780 5781 5782 5783 5784 5785 5788 5790 5792 5794 5796 5800 5801 5804 5808 5811 5814 5817 5819 5822 5825 5829 5832 5834 5836 5839 5842 5845 5847 5849 5852 5855 5858 5861 5864 5867 5869 5872 5873 5875 5876 5877 5881 5882 5882 5885 5888 5889 5890 5890 5891 5892 5894 5896 5897 5898 5900 5900 5901 5902 5903 5905 5906 5907 5908 5910 5912 5914 5915 5917 5919 5921
5791 5790 5788 5787 5786 5784 5783 5782 5781 5780 5779 5778 5777 5776 5776 5775 5776 5776 5778 5779 5779 5781 5784 5785 5787 5789 5792 5795 5797 5800 5803 5807 5811 5813 5816 5819 5823 5826 5829 5831 5834 5837 5839 5842 5844 5847 5849 5853 5856 5860 5863 5866 5868 5870 5872 5874 5876 5876 5879 5881 5881 5883 5886 5887 5888 5889 5890 5891 5893 5895 5895 5897 5899 5899 5899 5901 5902 5903 5904 5906 5908 5910 5912 5914 5915 5916 5918 5920
5788 5787 5786 5784 5783 5781 5780 5778 5777 5776 5775 5774 5773 5772 5772 5771 5771 5772 5773 5774 5775 5777 5779 5781 5783 5785 5788 5790 5793 5796 5800 5804 5807 5810 5814 5817 5820 5824 5826 5828 5832 5835 5837 5839 5841 5843 5847 5851 5855 5858 5861 5864 5867 5868 5870 5872 5875 5875 5877 5880 5879 5881 5884 5886 5886 5886 5888 5890 5892 5892 5893 5896 5897 5896 5897 5899 5901 5902 5903 5905 5908 5910 5911 5913 5915 5915 5917 5919
5785 5784 5783 5781 5780 5778 5776 5775 5774 5773 5771 5770 5769 5769 5768 5767 5768 5768 5769 5770 5771 5773 5775 5778 5780 5781 5785 5787 5789 5792 5796 5801 5804 5806 5811 5814 5817 5820 5823 5826 5829 5832 5834 5836 5838 5841 5845 5850 5853 5856 5859 5862 5864 5867 5867 5870 5874 5876 5877 5880 5879 5880 5884 5886 5885 5885 5887 5889 5890 5890 5891 5894 5896 5895 5895 5897 5899 5901 5903 5904 5907 5909 5909 5911 5913 5915 5916 5918
5782 5781 5780 5778 5776 5775 5773 5771 5770 5769 5768 5767 5766 5765 5764 5764 5764 5764 5765 5766 5767 5769 5771 5774 5776 5778 5781 5783 5785 5788 5793 5797 5801 5803 5808 5811 5813 5817 5821 5823 5827 5830 5832 5834 5836 5838 5844 5848 5851 5853 5857 5859 5862 5865 5866 5867 5872 5875 5876 5878 5879 5880 5882 5884 5883 5883 5886 5888 5888 5888 5889 5892 5895 5895 5895 5896 5898 5899 5901 5904 5906 5907 5908 5910 5913 5915 5916 5917
5779 5778 5777 5775 5773 5772 5770 5768 5767 5765 5764 5763 5762 5761 5761 5760 5760 5760 5762 5762 5763 5766 5768 5770 5772 5775 5777 5779 5782 5786 5790 5794 5797 5801 5805 5807 5810 5814 5818 5821 5824 5828 5830 5832 5834 5836 5842 5846 5848 5851 5854 5857 5859 5862 5864 5866 5870 5873 5874 5877 5879 5879 5880 5882 5882 5883 5886 5888 5887 5887 5889 5891 5893 5894 5895 5897 5898 5899 5901 5903 5905 5906 5907 5910 5912 5914 5915 5916
5777 5776 5774 5772 5771 5769 5767 5765 5763 5762 5761 5760 5759 5758 5757 5758 5758 5758 5759 5759 5760 5762 5764 5767 5770 5771 5774 5776 5779 5783 5787 5790 5793 5797 5801 5804 5806 5811 5815 5818 5822 5825 5827 5830 5832 5835 5840 5843 5845 5848 5851 5854 5857 5859 5862 5866 5868 5871 5874 5876 5878 5878 5879 5881 5881 5882 5885 5886 5886 5887 5889 5890 5892 5894 5895 5896 5897 5898 5901 5902 5904 5906 5907 5908 5911 5913 5914 5916
5774 5773 5771 5770 5768 5766 5764 5763 5761 5760 5759 5758 5756 5755 5755 5755 5756 5756 5757 5757 5757 5759 5762 5765 5767 5769 5771 5772 5775 5781 5784 5786 5790 5795 5798 5801 5803 5808 5811 5814 5818 5822 5825 5827 5829 5833 5838 5841 5842 5845 5848 5851 5855 5858 5861 5863 5864 5868 5873 5876 5877 5877 5878 5880 5881 5882 5883 5884 5885 5887 5888 5889 5891 5893 5894 5895 5896 5897 5899 5901 5902 5905 5906 5907 5910 5911 5913 5915
5772 5771 5769 5767 5766 5764 5762 5761 5759 5758 5756 5755 5754 5754 5754 5754 5754 5755 5755 5755 5756 5758 5762 5764 5765 5767 5767 5768 5774 5778 5780 5783 5787 5791 5796 5798 5801 5805 5809 5812 5816 5818 5821 5824 5827 5832 5836 5838 5839 5842 5846 5848 5852 5854 5857 5859 5862 5868 5871 5873 5875 5875 5876 5879 5880 5882 5882 5882 5884 5885 5887 5888 5890 5892 5893 5894 5895 5896 5898 5899 5901 5903 5904 5906 5909 5910 5912 5914
5770 5768 5767 5765 5763 5762 5761 5759 5758 5756 5755 5754 5753 5753 5753 5753 5753 5754 5754 5755 5756 5758 5760 5763 5765 5766 5765 5768 5774 5777 5778 5782 5783 5786 5792 5795 5798 5803 5806 5809 5813 5816 5819 5822 5825 5830 5834 5836 5838 5841 5844 5846 5849 5852 5855 5857 5862 5868 5869 5871 5874 5874 5875 5876 5878 5879 5880 5880 5881 5884 5886 5887 5888 5890 5892 5893 5894 5895 5897 5899 5901 5902 5903 5905 5907 5909 5910 5913
5768 5766 5765 5763 5762 5760 5759 5758 5757 5756 5754 5753 5752 5752 5752 5753 5753 5754 5754 5756 5757 5757 5760 5762 5763 5764 5765 5769 5773 5775 5776 5779 5780 5783 5788 5791 5794 5800 5802 5805 5810 5814 5818 5820 5822 5825 5830 5835 5837 5840 5842 5845 5848 5851 5854 5857 5862 5866 5868 5870 5873 5874 5874 5875 5877 5878 5878 5879 5881 5882 5884 5886 5887 5888 5890 5892 5892 5893 5895 5897 5899 5900 5902 5903 5905 5908 5909 5912
5766 5765 5763 5762 5760 5759 5758 5757 5756 5755 5754 5753 5752 5752 5753 5753 5754 5754 5755 5756 5757 5758 5760 5760 5761 5763 5765 5768 5771 5773 5775 5778 5779 5783 5787 5789 5793 5796 5799 5803 5809 5813 5816 5817 5819 5823 5828 5832 5835 5837 5839 5842 5845 5849 5852 5855 5859 5863 5865 5867 5870 5872 5872 5873 5875 5877 5877 5880 5882 5880 5880 5883 5885 5886 5889 5891 5892 5892 5894 5896 5897 5899 5900 5901 5904 5907 5909 5912
5764 5763 5762 5761 5759 5758 5757 5756 5755 5754 5754 5753 5752 5752 5753 5753 5754 5755 5756 5757 5758 5759 5760 5760 5760 5762 5765 5767 5769 5772 5775 5777 5777 5781 5785 5788 5792 5794 5796 5801 5806 5811 5814 5816 5820 5824 5827 5828 5830 5834 5837 5840 5842 5846 5851 5853 5856 5860 5862 5864 5867 5869 5870 5872 5873 5875 5877 5881 5882 5879 5880 5882 5883 5885 5887 5889 5891 5892 5892 5894 5896 5897 5899 5901 5903 5905 5907 5910
5763 5762 5761 5760 5758 5757 5756 5755 5754 5754 5753 5752 5752 5752 5752 5753 5754 5755 5756 5757 5759 5760 5760 5760 5760 5762 5764 5766 5768 5772 5775 5776 5777 5780 5783 5786 5790 5793 5797 5801 5805 5810 5814 5816 5820 5823 5825 5825 5826 5829 5834 5837 5839 5843 5847 5849 5852 5856 5858 5861 5865 5866 5868 5870 5872 5874 5877 5880 5880 5878 5880 5881 5882 5884 5885 5887 5889 5891 5892 5893 5895 5896 5898 5900 5901 5903 5906 5908
5761 5760 5760 5759 5757 5756 5755 5755 5754 5753 5752 5752 5752 5752 5753 5753 5754 5755 5756 5757 5759 5760 5761 5761 5762 5762 5763 5765 5768 5772 5775 5776 5778 5781 5783 5786 5790 5793 5797 5800 5805 5810 5812 5814 5818 5820 5823 5824 5823 5826 5831 5835 5839 5841 5843 5846 5850 5854 5855 5858 5861 5864 5867 5870 5872 5875 5878 5879 5877 5877 5879 5879 5880 5882 5883 5885 5887 5889 5891 5892 5894 5895 5897 5899 5899 5901 5904 5906
5760 5759 5759 5757 5756 5755 5754 5754 5753 5752 5752 5752 5752 5752 5753 5754 5754 5755 5757 5758 5760 5762 5763 5763 5764 5764 5765 5766 5769 5772 5776 5778 5779 5782 5784 5786 5789 5793 5796 5799 5804 5808 5809 5812 5816 5817 5821 5823 5823 5826 5830 5834 5838 5839 5839 5842 5846 5852 5855 5857 5859 5863 5867 5870 5873 5876 5879 5877 5875 5876 5877 5877 5879 5881 5882 5884 5885 5887 5889 5891 5893 5894 5895 5898 5898 5898 5901 5904
5759 5758 5758 5757 5756 5755 5754 5753 5753 5752 5752 5752 5752 5753 5753 5754 5754 5755 5757 5758 5759 5762 5763 5765 5766 5766 5766 5767 5770 5775 5778 5779 5780 5782 5784 5786 5789 5793 5796 5798 5801 5804 5806 5809 5812 5814 5818 5821 5823 5826 5829 5833 5837 5837 5837 5841 5843 5848 5853 5855 5857 5862 5866 5869 5871 5875 5877 5875 5873 5874 5876 5876 5878 5880 5881 5883 5884 5885 5887 5889 5890 5892 5893 5895 5896 5897 5900 5903
5758 5757 5757 5756 5755 5754 5753 5753 5753 5753 5752 5752 5753 5753 5753 5754 5755 5755 5757 5757 5759 5760 5762 5765 5767 5767 5768 5769 5771 5774 5777 5779 5780 5782 5784 5786 5789 5791 5794 5796 5797 5799 5803 5806 5809 5811 5814 5818 5821 5823 5826 5831 5836 5836 5838 5841 5843 5847 5850 5852 5855 5859 5863 5865 5866 5871 5874 5873 5871 5872 5874 5876 5877 5879 5880 5881 5882 5883 5885 5888 5889 5890 5892 5894 5895 5897 5900 5903
5757 5757 5756 5756 5755 5754 5753 5753 5753 5753 5752 5752 5753 5753 5753 5754 5755 5755 5757 5757 5758 5760 5760 5763 5765 5766 5767 5768 5769 5771 5773 5777 5781 5782 5784 5786 5787 5788 5788 5790 5792 5795 5800 5805 5808 5810 5812 5816 5819 5820 5822 5827 5832 5835 5837 5839 5842 5844 5846 5849 5854 5858 5861 5862 5864 5868 5870 5869 5869 5869 5870 5872 5874 5875 5878 5880 5881 5883 5885 5887 5888 5889 5891 5893 5895 5896 5898 5901
5756 5756 5756 5756 5755 5755 5754 5754 5753 5753 5753 5752 5752 5752 5753 5754 5754 5755 5757 5756 5757 5758 5758 5760 5761 5761 5762 5764 5766 5768 5770 5774 5779 5780 5781 5783 5784 5785 5785 5787 5790 5794 5798 5804 5808 5810 5811 5814 5816 5817 5819 5823 5827 5831 5833 5837 5840 5842 5844 5847 5852 5856 5858 5860 5863 5865 5866 5865 5866 5867 5868 5870 5872 5874 5876 5879 5880 5882 5884 5886 5887 5888 5890 5892 5894 5896 5897 5899
5756 5755 5755 5755 5755 5754 5753 5753 5753 5753 5753 5753 5752 5753 5753 5754 5754 5755 5756 5756 5756 5757 5758 5759 5760 5759 5761 5762 5765 5766 5767 5771 5774 5774 5777 5777 5778 5781 5785 5788 5791 5795 5800 5804 5806 5807 5809 5811 5813 5815 5817 5819 5823 5827 5831 5837 5840 5842 5845 5848 5851 5854 5856 5858 5861 5864 5863 5862 5864 5866 5867 5868 5871 5873 5875 5877 5879 5881 5884 5886 5887 5887 5889 5891 5893 5895 5896 5898
5755 5755 5754 5754 5754 5754 5753 5754 5753 5753 5753 5753 5752 5753 5753 5753 5753 5754 5755 5755 5756 5757 5757 5759 5759 5760 5760 5761 5763 5765 5766 5767 5768 5769 5771 5772 5774 5779 5783 5787 5791 5796 5800 5801 5801 5802 5805 5808 5810 5813 5815 5817 5820 5825 5830 5836 5840 5841 5844 5848 5852 5855 5857 5858 5861 5861 5860 5859 5860 5863 5865 5866 5869 5870 5872 5874 5877 5880 5882 5884 5885 5886 5888 5890 5891 5894 5896 5897
5755 5754 5754 5753 5753 5753 5753 5753 5753 5753 5754 5754 5752 5752 5753 5753 5753 5754 5754 5755 5755 5756 5757 5758 5758 5759 5759 5760 5762 5764 5764 5764 5766 5768 5770 5771 5775 5779 5782 5785 5788 5792 5795 5797 5799 5801 5802 5805 5809 5811 5814 5816 5819 5824 5829 5832 5835 5837 5841 5846 5851 5853 5852 5854 5855 5856 5856 5856 5857 5860 5862 5863 5865 5867 5869 5871 5874 5878 5880 5881 5883 5885 5886 5888 5890 5892 5894 5896
5754 5754 5754 5753 5752 5752 5753 5753 5752 5752 5754 5754 5752 5752 5752 5753 5753 5753 5754 5754 5755 5756 5756 5756 5757 5758 5759 5759 5761 5762 5763 5764 5766 5768 5770 5772 5775 5777 5780 5784 5788 5790 5793 5797 5801 5802 5802 5804 5808 5810 5813 5815 5817 5822 5825 5827 5830 5834 5840 5845 5846 5845 5846 5849 5851 5852 5852 5853 5855 5857 5859 5861 5863 5865 5867 5868 5870 5875 5877 5878 5881 5883 5885 5886 5888 5891 5893 5896
5754 5754 5754 5753 5752 5752 5752 5753 5752 5752 5753 5753 5751 5751 5753 5753 5753 5753 5754 5755 5755 5755 5756 5756 5757 5758 5758 5759 5761 5762 5762 5764 5767 5768 5769 5772 5774 5776 5778 5783 5787 5790 5793 5797 5800 5800 5800 5803 5806 5808 5811 5814 5815 5818 5821 5824 5828 5832 5838 5842 5841 5839 5843 5848 5848 5847 5848 5850 5852 5854 5856 5859 5860 5863 5865 5866 5868 5872 5875 5876 5878 5879 5882 5884 5886 5888 5891 5894
5753 5753 5754 5753 5751 5751 5752 5752 5752 5752 5752 5752 5751 5752 5753 5753 5753 5754 5754 5755 5755 5755 5756 5756 5758 5758 5758 5760 5761 5762 5762 5764 5766 5768 5769 5771 5773 5774 5777 5780 5784 5788 5790 5794 5796 5798 5800 5802 5804 5805 5808 5810 5813 5816 5819 5823 5828 5831 5835 5839 5838 5837 5840 5843 5843 5842 5844 5846 5848 5850 5853 5856 5858 5860 5863 5863 5865 5870 5873 5874 5875 5877 5879 5882 5884 5886 5888 5890
5752 5752 5753 5752 5751 5751 5752 5752 5752 5751 5751 5752 5752 5753 5753 5752 5753 5753 5754 5755 5755 5756 5757 5757 5758 5758 5759 5760 5761 5762 5763 5765 5766 5767 5769 5770 5772 5774 5776 5778 5782 5785 5788 5791 5794 5796 5799 5802 5803 5805 5807 5809 5811 5813 5816 5821 5824 5829 5833 5836 5834 5834 5839 5841 5840 5840 5841 5843 5845 5847 5849 5853 5855 5858 5860 5860 5863 5868 5872 5874 5874 5875 5877 5880 5882 5884 5886 5888
5752 5752 5752 5751 5750 5751 5751 5752 5752 5751 5752 5752 5752 5753 5753 5753 5753 5753 5753 5754 5755 5756 5757 5757 5757 5758 5759 5760 5760 5761 5763 5764 5766 5767 5768 5770 5772 5773 5775 5777 5780 5783 5785 5788 5792 5795 5797 5800 5802 5805 5808 5809 5809 5811 5815 5819 5821 5824 5829 5831 5829 5831 5836 5839 5837 5835 5838 5842 5843 5844 5846 5850 5853 5855 5857 5858 5861 5865 5869 5871 5873 5873 5875 5878 5880 5882 5884 5885
5752 5752 5752 5751 5751 5751 5751 5751 5751 5751 5752 5752 5752 5753 5753 5752 5752 5752 5753 5754 5754 5755 5757 5757 5757 5757 5758 5759 5759 5760 5762 5763 5765 5766 5767 5769 5772 5773 5775 5777 5779 5781 5783 5787 5791 5793 5795 5797 5799 5802 5805 5807 5809 5811 5814 5817 5819 5823 5826 5825 5825 5827 5833 5836 5833 5832 5837 5840 5840 5842 5845 5848 5850 5852 5855 5856 5859 5862 5865 5868 5870 5871 5872 5875 5878 5880 5882 5883
5752 5752 5752 5752 5751 5751 5751 5751 5751 5751 5751 5752 5752 5752 5753 5752 5752 5752 5752 5753 5754 5754 5756 5757 5757 5757 5758 5759 5760 5760 5762 5763 5765 5766 5767 5768 5770 5772 5773 5775 5778 5780 5783 5787 5789 5791 5793 5794 5796 5799 5801 5804 5807 5809 5811 5814 5817 5820 5821 5820 5821 5824 5829 5831 5829 5830 5835 5838 5838 5840 5842 5844 5846 5850 5852 5855 5858 5860 5862 5864 5867 5869 5870 5873 5876 5878 5880 5882
5752 5752 5752 5752 5752 5751 5751 5751 5751 5751 5751 5751 5752 5752 5752 5752 5753 5753 5753 5753 5754 5754 5755 5756 5757 5757 5757 5759 5761 5761 5762 5764 5765 5766 5767 5768 5770 5771 5773 5775 5777 5780 5783 5785 5787 5790 5791 5792 5795 5798 5800 5803 5805 5807 5810 5812 5813 5814 5816 5818 5820 5823 5827 5827 5824 5826 5832 5835 5836 5838 5839 5842 5845 5848 5851 5855 5857 5857 5859 5862 5865 5867 5869 5871 5873 5875 5878 5879
5751 5751 5751 5752 5752 5751 5751 5750 5750 5750 5751 5751 5751 5752 5752 5753 5753 5753 5753 5754 5754 5754 5755 5756 5757 5757 5757 5758 5761 5762 5762 5763 5765 5767 5768 5768 5769 5771 5774 5776 5778 5779 5782 5784 5786 5788 5790 5791 5793 5797 5800 5803 5805 5806 5808 5809 5810 5812 5814 5816 5818 5821 5825 5825 5822 5822 5828 5832 5834 5836 5838 5841 5843 5846 5849 5852 5853 5854 5856 5860 5862 5865 5867 5869 5870 5872 5874 5876
5751 5751 5751 5751 5751 5751 5750 5750 5750 5750 5750 5750 5751 5751 5752 5753 5753 5754 5754 5754 5754 5754 5755 5755 5756 5756 5757 5758 5760 5761 5761 5762 5764 5766 5767 5768 5769 5771 5773 5775 5776 5778 5781 5782 5784 5785 5788 5790 5791 5794 5797 5800 5802 5804 5805 5807 5809 5811 5812 5814 5817 5821 5823 5822 5819 5820 5825 5830 5832 5833 5836 5839 5841 5843 5845 5848 5850 5852 5854 5856 5857 5861 5865 5867 5868 5869 5871 5873